Voltar ao catálogo

FENGYUN 1C DEB

AtivoSSO
NORAD 29993·DEBRIS·🇨🇳 China

Lançado May 10, 1999 de Taiyuan Satellite Launch Center

Loading…

Próximas Passagens (próximas 24 horas)

TLE

AtualizadoSource: Space-Track

Época: Sep 14, 2026, 07:33 UTC

1 29993U 99025LT  26257.31492291  .00000169  00000-0  12352-3 0  9992
2 29993  98.7609 291.4845 0038123 256.2100 103.4826 14.08224106 10495

Acompanhe FENGYUN 1C DEB em tempo real com AllMySat

Download on the App Store